DECAYED

ARIANE 5 DEB (SYLDA), 40735 (Decayed)

Orbit data source: Space-Track

ARIANE 5 DEB (SYLDA), 40735 was space debris in LEO originally from a launch on Wed, 15 Jul 2015 UTC launched from the French Guiana (FRGUI). Debris objects in space refer to the collection of defunct objects orbiting the Earth. Examples of debris include non-operational satellites, rocket bodies, and fragments generated from explosions, collisions, or faulty payload assembly.

Not visible in the next 10 days
Identifier
40735, 2015-034D
Orbit
Decayed
Country
Flag of FRFR
Related business
Manufacturer
ADS/Bremen
Mission
Decayed spacecraft
Bus & Motor
SYLDA 5, Unknown motor
Mass
440 kg wet, 440 kg dry
Launch date (UTC)
2015-07-15 (11 years ago)
Launch vehicle
Unknown
Launch site
French Guiana (FRGUI)
Object type
Payload
Rocket body
Debris
Shape & HBR
Cyl, 2.8 m
Radar Cross Section
27.391 m², Large (>1 m²)

Expand to show TLE details & history
Last TLE update: 1 month ago

TLE from 1 month ago
0 ARIANE 5 DEB (SYLDA)
1 40735U 15034D   26072.28039654  .14474206 -24133-4  40528-2 0  9993
2 40735   3.8784  43.8314 0899622 242.6602 107.9094 14.30534569123648
Epoch: 2026-03-13T06:43Z
TLE epoch observation values (Epoch: 2026-03-13T06:43:46.261Z)
Latitude
-0.00001°
Longitude
131.97036°
Altitude
1,035.267 km
Speed
7.209 km/s
True Right ascension
02h 55m 19s
True Declination
0° 00' 00"
Sunlit
Object was in daylight at epoch
Visualization orbit readout
Latitude
Unknown
Longitude
Unknown
Altitude
Unknown
Speed
Unknown
Apparent Right ascension
Unknown
Apparent Declination
Unknown
Sunlit
N/A
Visualization observer readout
Local Sidereal Time
04:39:00
Azimuth
Unknown
Elevation
Unknown
Doppler factor
Unknown
Orbital elements
Apogee altitude
1,441.543 km
Perigee altitude
150.717 km
Semi-major axis
7,174.267 km
Eccentricity
0.08996
Inclination
3.8784°
RAAN
43.8314°
Arg. of periapsis
242.6602°
True anomaly
117.34782°
Mean anomaly
107.9094°
Eccentric anomaly
112.66577°
Mean motion
3.57172 °/min
Orbital period
100.79 mins
BSTAR
0.0040528
Loading maneuver chart data...
Computing Atmospheric mass density...
Loading historical data...
Loading historical data...
Loading historical data...
Loading historical data...
Loading historical data...
Loading historical data...
Loading historical data...

Documentation

Showing up to 5 results
|